RH
45 44 43 43 43 46 48 48 50 54 57 57 58 61 61 56 51 47 46 47 45 42 41 42 41 40 39 38 37 37 36 37 39 40 41 41 42 42 43 43 43 43 43 43 43 43 43 44 44 44 43 42 41 41 42 43 43 43 43 43 42 42 42 41 40 39 39 39 39 39 38 36 34 33 33 32 31 30 29 28 27 27 25 24 22
46 44 43 43 42 42 44 45 47 49 52 53 53 52 51 53 51 47 44 47 49 48 46 45 44 42 41 39 38 38 38 39 41 43 43 43 44 45 46 46 47 47 47 47 47 47 48 49 50 51 51 51 50 48 46 45 44 43 42 42 40 39 38 38 38 39 40 41 41 41 40 38 36 35 35 34 33 31 30 30 29 29 28 27 26
48 47 45 44 41 40 42 46 46 46 47 49 50 48 48 53 55 51 47 48 50 52 51 50 48 46 43 41 40 40 41 43 45 47 47 48 49 49 49 50 50 50 51 50 50 52 55 56 57 57 57 57 57 56 53 51 49 48 47 45 43 41 40 40 41 42 43 42 41 39 38 37 36 36 35 34 32 30 29 29 28 28 26 26 24
50 49 48 47 45 43 45 48 46 43 44 47 50 51 52 54 57 56 53 49 49 50 50 50 51 50 47 46 46 46 46 47 50 51 52 53 53 52 52 53 53 53 54 55 57 60 61 62 62 62 60 58 59 59 58 56 53 51 52 50 49 46 45 43 43 42 42 40 38 36 36 37 37 37 36 35 33 30 28 27 26 25 24 23 22
51 52 51 51 50 48 47 48 46 44 46 52 55 55 57 57 57 60 60 56 51 48 48 48 50 50 52 51 50 51 51 53 56 57 57 57 57 57 57 57 57 57 56 58 60 61 62 63 64 64 62 60 58 58 60 60 57 54 52 52 52 52 50 48 47 46 45 43 40 39 38 39 39 39 39 39 38 36 33 31 29 27 26 24 23
53 53 52 51 51 50 48 49 49 47 48 55 59 59 57 56 58 61 64 65 61 56 55 55 52 52 56 57 56 55 56 58 61 63 63 62 61 62 62 62 62 60 59 58 59 60 62 64 65 65 64 62 60 57 57 57 57 57 56 55 56 57 57 55 54 53 52 50 48 45 44 44 43 43 43 42 43 41 39 37 35 33 31 29 27
53 53 53 53 53 52 51 49 49 48 48 54 61 62 58 57 58 59 61 66 65 62 62 62 59 59 63 63 62 63 62 63 65 68 70 68 66 67 68 69 68 65 63 61 59 61 63 66 68 68 68 66 63 61 58 55 55 56 56 55 56 56 57 57 58 58 57 56 55 53 51 50 49 48 47 46 46 44 42 41 40 39 38 35 33
49 49 51 52 53 54 53 51 49 47 48 52 57 60 59 56 57 59 61 66 66 62 61 64 64 66 68 69 68 69 70 71 73 75 76 75 73 74 75 77 77 73 70 67 65 64 64 66 69 70 71 70 66 64 61 58 55 53 52 53 52 52 53 54 55 57 57 57 57 58 57 56 55 53 51 50 49 47 45 43 43 43 42 41 38
42 44 46 48 50 51 51 51 49 47 47 49 52 57 58 56 57 62 65 68 69 64 61 65 68 70 73 76 75 75 78 80 82 82 83 82 82 83 84 84 84 80 76 75 72 68 66 66 68 69 71 71 69 67 65 62 59 55 53 52 52 51 52 53 52 53 54 55 54 54 55 56 55 53 52 52 51 49 47 47 46 45 44 43 41
42 43 44 45 46 47 48 49 48 47 47 49 51 53 56 58 61 64 65 66 70 70 67 69 73 75 78 80 81 81 82 82 82 83 84 83 83 85 83 82 84 83 78 74 70 65 61 60 61 63 64 64 64 64 64 63 62 58 55 53 50 49 48 47 47 48 51 54 53 53 54 54 51 49 49 49 48 47 46 45 45 44 44 42 40
45 45 45 44 42 42 43 46 48 48 47 49 50 50 53 56 59 62 62 61 65 73 76 77 79 80 81 83 83 81 78 77 79 82 82 78 75 74 74 77 81 80 73 66 61 55 51 50 51 53 55 56 57 56 55 55 55 54 51 47 43 42 40 38 40 44 48 51 52 53 55 53 48 45 42 40 39 39 38 37 37 37 37 37 36
45 45 46 44 43 42 42 44 47 48 48 49 49 50 53 57 58 61 63 62 65 75 81 81 81 83 82 80 78 73 69 68 69 72 75 72 66 63 66 72 74 68 60 54 49 44 41 39 40 41 44 46 48 49 50 48 48 47 45 40 37 36 35 34 36 40 42 43 45 46 47 44 40 36 34 32 32 31 31 31 30 30 30 31 31
42 42 42 42 43 45 45 46 49 50 53 53 52 50 53 58 60 62 63 65 67 71 75 77 78 76 73 67 63 62 63 63 60 58 60 61 59 60 63 66 63 57 51 45 40 36 33 32 33 34 35 37 39 42 46 46 46 46 44 41 37 35 34 32 33 35 35 35 34 34 34 32 30 29 28 28 29 29 28 29 28 27 27 27 27
42 41 40 39 43 47 50 53 53 54 56 57 56 52 51 53 56 57 59 64 66 65 67 72 71 66 63 59 58 59 59 59 57 56 56 57 57 62 64 60 55 51 47 41 37 34 33 32 32 31 31 33 37 40 43 44 44 42 41 39 35 32 32 30 30 30 30 30 29 29 29 28 27 27 28 29 28 28 28 28 27 27 26 25 24
46 44 42 41 42 46 51 56 58 57 57 58 58 56 53 53 55 57 62 67 70 67 66 67 65 60 58 57 57 58 58 58 59 59 59 60 60 61 60 54 48 44 40 39 38 36 34 33 33 31 31 34 39 42 43 41 39 37 35 34 32 30 29 29 29 29 29 29 29 29 29 28 28 29 29 29 28 28 28 26 25 23 22 22 21
52 48 46 45 44 43 45 48 51 51 51 53 56 56 57 60 65 70 74 75 75 71 66 64 61 60 62 62 61 62 62 63 62 61 61 62 60 56 52 49 46 43 41 40 39 36 33 32 33 34 34 36 40 42 41 40 39 37 35 33 32 31 31 31 31 31 32 32 31 31 30 30 30 30 30 29 28 26 25 24 23 22 21 21 20
49 47 45 44 46 46 45 44 45 46 45 46 50 53 56 59 61 65 70 72 74 71 66 65 63 62 67 70 69 67 66 64 64 63 62 60 55 50 48 47 47 47 46 44 42 40 36 33 33 33 32 33 36 39 40 40 39 38 36 35 34 33 33 34 34 34 34 33 32 32 32 31 31 30 29 27 27 25 24 23 23 23 22 22 22
46 44 42 42 45 48 47 46 45 44 44 46 52 55 58 60 61 61 62 67 73 74 71 72 71 69 72 72 69 68 66 64 64 63 61 58 52 48 48 50 50 50 49 47 46 44 40 37 36 35 34 34 35 38 40 40 39 38 37 36 36 35 35 35 35 34 34 33 32 32 31 31 31 30 28 27 26 25 24 23 23 22 22 24 26
45 43 41 41 43 45 44 41 39 39 40 45 52 57 60 63 66 67 66 68 71 72 73 74 71 69 71 72 70 69 68 65 63 61 60 57 53 50 50 52 53 53 52 51 49 46 44 42 41 39 39 38 38 40 42 42 40 39 38 37 36 35 35 34 34 33 33 32 31 31 30 30 29 27 26 26 24 24 23 22 21 23 24 26 27
47 46 44 44 47 48 45 40 37 37 38 44 50 54 57 62 64 68 72 75 75 73 72 71 69 68 70 72 72 71 70 67 64 62 61 59 56 54 54 55 56 56 55 52 49 48 46 46 45 44 43 41 41 42 42 43 42 41 40 39 39 38 37 36 36 35 34 33 32 31 29 27 25 24 24 23 22 21 21 22 23 24 25 26 28
43 44 45 46 48 49 47 43 41 40 40 44 50 52 54 60 63 66 72 77 79 78 76 74 73 73 73 73 73 71 69 68 65 63 62 61 59 59 59 58 58 56 53 50 49 48 48 48 47 46 44 42 42 41 41 41 42 41 40 39 38 38 38 37 36 35 34 33 32 29 27 25 24 23 22 21 21 21 22 23 25 26 27 29 32
40 41 44 46 47 48 48 46 46 46 46 48 52 53 53 56 60 66 72 76 77 78 78 77 76 74 71 71 71 69 67 66 63 61 60 59 60 62 62 59 56 54 52 50 49 49 49 50 49 48 45 44 42 42 42 41 40 39 38 36 35 36 35 35 34 33 31 29 27 25 24 23 22 21 21 21 22 24 25 26 27 28 29 29 30
42 43 46 49 51 52 53 52 51 51 53 54 55 56 54 53 54 59 66 72 75 77 77 76 75 72 69 68 67 65 63 62 60 58 59 61 63 65 63 59 55 53 51 50 49 50 52 52 50 48 47 45 45 44 43 42 41 38 36 34 33 32 31 31 30 28 26 25 23 22 21 21 21 22 23 24 26 26 27 27 27 27 26 25 25
40 42 44 48 52 55 56 57 55 55 56 57 58 59 57 55 53 53 55 61 66 70 74 76 75 72 68 64 63 63 63 62 61 61 61 63 64 63 60 56 54 53 52 52 54 55 56 54 51 51 50 47 45 43 41 40 38 35 32 29 27 27 27 27 26 24 23 21 21 21 22 23 24 25 26 27 28 28 27 27 26 25 25 26 26
37 40 42 46 50 53 56 57 58 59 58 58 60 62 61 59 58 56 55 57 60 62 65 67 69 70 68 65 65 66 66 66 66 65 64 65 65 63 61 59 58 58 58 59 60 60 59 57 54 53 51 46 42 40 38 36 34 32 30 29 27 26 25 23 22 22 22 22 23 25 27 27 28 29 29 30 29 29 28 28 28 27 27 27 27
33 34 37 40 43 46 50 53 57 60 61 60 59 62 63 63 64 62 61 62 62 62 62 61 63 65 66 64 65 65 65 66 67 66 66 68 70 70 70 69 66 64 63 64 64 63 61 58 56 54 49 45 42 40 37 34 31 30 30 29 26 23 22 21 23 24 26 27 28 30 31 32 32 32 31 30 29 29 28 28 27 27 28 29 31
26 26 27 30 32 34 37 42 48 55 63 66 63 61 63 65 65 65 68 68 65 65 65 66 66 66 64 61 61 62 65 66 65 65 67 71 74 77 79 76 70 66 64 64 64 63 62 58 54 49 45 42 40 37 33 31 29 29 28 24 22 22 24 25 26 28 29 31 33 34 35 34 32 31 29 28 28 27 28 29 30 32 34 37 39
21 21 21 21 22 23 25 29 34 42 52 60 62 63 66 67 66 67 72 72 71 72 75 76 75 74 70 66 65 67 72 73 71 71 74 75 76 77 75 71 66 64 63 63 63 62 60 56 49 43 41 40 38 34 32 30 28 26 23 22 23 26 28 28 29 31 34 35 35 35 34 32 29 28 28 29 30 32 35 37 40 41 43 45 47
20 20 20 20 20 20 21 22 25 30 38 45 51 56 63 69 72 74 76 75 74 76 80 83 83 82 79 76 74 76 80 79 78 79 79 77 74 71 67 64 63 62 62 62 61 59 54 48 43 39 39 39 38 36 33 30 27 24 24 26 29 30 32 33 33 34 34 34 32 31 31 31 31 32 34 37 38 40 42 45 46 48 50 52 56
26 23 22 21 20 20 21 21 22 25 30 37 44 49 55 64 71 75 78 79 78 79 82 84 84 84 83 82 83 85 85 83 81 81 80 76 72 70 66 64 61 59 57 57 54 50 44 41 39 38 39 39 39 38 35 30 27 27 30 32 33 35 35 34 32 30 29 30 30 31 33 35 37 39 42 44 45 46 48 51 53 56 60 65 71
35 31 28 26 23 21 22 23 24 24 25 29 37 43 49 55 61 65 68 72 77 83 87 87 85 85 84 84 87 88 86 84 82 80 77 74 71 68 65 63 60 57 54 52 46 41 38 38 38 39 40 42 42 39 34 29 30 34 36 37 37 35 31 28 26 27 30 32 34 36 38 41 43 45 47 49 51 54 57 61 65 70 76 81 85
46 41 38 35 31 25 22 23 25 27 27 25 28 35 42 48 53 57 60 62 68 77 85 88 89 88 85 84 86 87 86 84 83 80 77 74 72 68 65 63 59 54 51 46 41 37 37 39 40 41 43 44 42 37 33 33 37 40 39 37 33 28 24 24 27 31 34 36 37 39 42 45 48 51 54 58 62 67 71 76 81 85 89 90 91
53 50 46 43 39 33 28 24 24 27 29 28 27 28 33 39 46 52 56 58 59 63 69 78 86 90 89 86 85 85 85 85 84 81 77 74 69 66 63 60 54 49 45 42 39 38 39 41 43 45 46 44 40 38 38 41 43 42 37 32 25 22 23 27 31 34 36 38 41 44 47 51 55 59 65 70 76 81 86 89 91 93 94 93 94
59 57 55 51 48 43 38 32 29 30 32 32 30 29 29 33 39 45 53 60 63 62 61 64 70 76 78 79 81 84 87 85 81 78 74 69 65 63 59 54 49 44 41 39 38 39 41 44 46 48 46 43 42 43 44 44 42 36 30 25 23 24 27 29 32 35 39 41 45 49 54 58 63 70 77 83 88 91 93 95 96 95 95 93 93
65 61 57 56 55 54 50 41 36 36 37 36 33 32 31 31 33 37 45 57 70 77 74 68 66 68 69 69 72 79 82 80 76 74 70 64 61 61 57 53 48 44 40 39 39 41 44 47 49 48 46 45 46 46 45 41 36 29 25 25 26 27 27 30 34 37 41 44 47 53 59 66 73 80 87 92 94 95 96 97 96 96 94 91 90
78 72 66 61 57 57 58 52 45 41 42 41 38 36 36 34 34 36 37 43 57 74 81 80 79 81 80 77 78 84 87 84 80 77 72 67 64 63 58 52 48 44 42 42 43 44 47 49 49 48 48 48 47 44 40 34 28 26 28 29 28 25 27 31 36 39 42 45 50 58 66 74 81 87 92 96 97 97 97 96 96 96 94 91 90
83 84 82 77 69 63 61 60 54 48 47 47 44 41 39 38 38 39 37 38 47 61 74 82 85 85 82 82 86 90 93 92 87 82 77 72 67 60 54 49 46 43 43 44 45 46 49 50 49 49 49 49 45 40 33 28 28 31 33 29 24 24 28 33 36 39 43 47 53 62 73 81 86 91 95 97 98 97 96 96 96 97 96 93 90
72 77 82 86 86 79 70 65 60 56 54 55 55 51 47 44 42 40 41 44 47 52 61 73 82 83 81 83 88 90 92 92 90 84 78 71 64 56 50 47 45 43 43 44 46 49 50 50 50 51 50 46 40 33 29 30 35 38 34 27 23 25 30 33 36 40 44 48 55 67 78 85 89 93 94 96 97 96 95 97 98 98 97 94 89
67 71 75 81 88 92 87 77 67 60 57 59 63 63 60 57 52 46 44 46 50 54 60 68 76 80 81 82 83 84 84 86 88 86 77 67 59 53 47 43 42 43 46 48 50 51 51 52 53 52 47 40 34 30 32 39 42 37 29 24 24 27 30 33 36 40 44 48 55 69 81 88 91 92 93 93 95 95 96 97 97 95 93 90 88
69 72 75 79 86 95 97 90 81 72 65 62 63 66 67 67 63 58 52 48 50 56 64 68 71 75 79 82 83 82 78 77 81 82 74 63 55 50 45 42 43 45 49 51 53 53 53 54 53 48 41 34 32 35 42 45 40 31 26 25 25 27 30 33 35 40 44 46 52 65 81 89 90 91 92 92 93 95 97 95 93 91 89 89 88
70 73 78 84 91 97 100 97 92 85 76 69 64 64 66 68 67 65 61 56 52 55 62 67 72 78 85 89 89 87 82 78 77 76 69 60 54 50 48 48 49 49 50 52 53 53 52 51 48 41 35 34 38 44 47 42 32 26 25 25 24 26 29 32 35 39 43 45 47 58 75 86 89 90 91 92 93 94 95 92 89 88 89 89 87
68 72 78 87 96 100 100 98 96 91 82 74 68 65 65 67 68 67 66 62 58 57 57 63 72 80 86 90 90 88 85 81 77 71 65 58 54 51 51 53 55 54 53 52 52 52 50 47 43 38 38 41 46 48 43 34 27 25 24 23 23 25 28 31 35 39 42 43 45 51 63 77 86 89 90 91 93 93 91 88 87 87 86 84 83
65 67 72 80 89 95 98 100 101 95 87 79 73 69 67 67 66 67 65 63 63 60 57 60 69 78 82 87 90 88 82 77 72 67 61 56 53 53 55 58 61 61 56 51 50 50 48 44 41 41 44 48 49 45 38 29 26 25 24 22 21 23 25 29 34 37 40 42 43 45 51 63 76 83 87 89 91 91 88 87 87 86 84 81 83
63 65 68 72 76 80 87 95 100 99 94 88 81 76 74 71 67 65 63 62 61 60 56 57 68 78 81 83 83 78 72 70 68 64 59 55 54 57 60 64 66 62 55 49 48 49 46 43 43 46 50 51 47 40 33 28 26 25 23 21 20 21 24 28 31 34 37 39 41 43 44 50 60 72 80 85 87 88 88 87 87 86 84 82 83
64 64 66 70 73 74 75 79 83 87 91 91 87 84 81 75 69 67 66 63 61 57 52 54 70 84 86 82 78 75 71 68 65 62 59 59 60 62 67 71 70 63 54 47 46 47 47 47 48 50 51 49 44 36 31 29 27 25 23 21 20 21 24 27 29 32 35 36 39 42 42 42 46 55 65 75 82 86 88 89 89 88 86 84 84
73 69 67 68 71 73 73 71 70 70 74 80 86 89 85 77 72 74 75 71 65 61 59 64 79 91 89 82 77 73 68 63 61 63 65 67 69 72 76 78 73 64 54 48 47 49 50 50 51 52 51 47 40 34 31 30 29 26 25 24 21 20 24 27 29 30 32 34 37 39 41 41 42 43 49 59 70 80 86 88 89 89 89 88 87
81 80 77 73 69 68 69 69 69 69 69 70 73 76 76 74 76 80 82 79 79 79 79 80 85 89 87 82 78 75 72 72 75 79 80 80 80 82 83 79 72 63 55 50 49 52 53 51 51 52 50 44 37 34 32 31 30 29 28 27 24 21 24 27 28 29 30 32 35 37 40 41 42 42 43 46 54 66 77 84 86 88 89 91 92
83 86 88 86 82 78 73 68 67 70 71 72 73 75 77 79 81 81 82 85 90 92 88 83 81 84 86 87 87 88 90 92 93 95 94 91 87 83 80 74 67 61 56 52 52 53 54 53 53 52 47 41 37 35 33 32 32 31 31 31 28 25 24 26 29 29 30 31 33 35 38 40 41 43 43 43 44 50 61 71 79 84 86 88 92
82 85 89 91 92 91 86 79 73 70 69 71 73 76 77 77 77 78 82 86 90 90 86 83 84 87 91 92 94 96 97 97 97 98 97 91 83 78 74 69 63 59 55 53 54 55 55 54 52 49 43 38 36 35 35 34 34 33 33 34 33 29 26 28 30 31 30 30 31 33 36 38 40 42 43 43 43 43 48 56 66 74 80 83 87
82 84 86 89 92 94 94 92 88 83 79 76 74 73 72 72 74 78 82 85 87 89 89 90 91 93 95 96 96 97 98 98 97 95 90 82 75 70 67 63 61 58 54 51 52 54 54 52 48 43 38 35 35 35 35 35 35 34 35 36 36 32 29 28 30 31 30 29 30 32 34 36 38 41 42 43 43 43 43 46 52 60 69 77 82
81 82 84 88 92 94 96 97 96 95 94 92 90 88 87 87 88 90 91 90 91 92 92 91 93 95 96 97 97 98 97 96 92 86 80 73 68 64 62 62 62 59 53 50 50 50 49 46 42 38 36 35 35 35 36 36 36 36 35 36 36 35 30 27 29 32 32 30 30 32 33 34 36 39 41 42 42 42 43 44 46 50 56 66 75